Погода в Ичкином

Россия / Курганская область     56°14′44″N   63°51′59″E
темп.,
°C
ветер,
м/с
пор.,
м/с
влажн.,
%
обл.,
%
осадки,
мм/ч
давл.,
гПа
погр.,
м
23 января, сб
сб2323:00−28с349663 0.0 102669
02:00−29с349882 0.0 102943
05:00−33с349569 0.0 103264
08:00−36с33969 0.0 103529
11:00−34ссз239536 0.0 1036118
14:00−31ссз129170 0.0 1038180
17:00−34зсз119577 0.0 103719
20:00−32ююв2294100 0.0 103928
24 января, вс
вс2423:00−32ююв2394100 0.0 103954
02:00−29ююв3595100 0.0 1037182
05:00−28юв4698100 0.2 1035228
08:00−27юв4698100 0.3 1036234
11:00−27ююв589699 0.0 1038245
14:00−25вюв469799 0.0 1037263
17:00−26вюв4797100 0.0 1037193
20:00−21ююв61098100 1.2 1031390
25 января, пн
пн2523:00−19ююв5997100 1.9 1030351
02:00−18ююв3797100 0.3 1028238
05:00−23юв5898100 1.0 1034275
08:00−17вюв1196100 0.1 102820
11:00−20юв4697100 0.9 1033256
14:00−18вюв459699 0.1 1033279
17:00−11ююв229681 0.2 102927
20:00−8юв239698 0.6 103070
26 января, вт
вт2623:00−19вюв3597100 0.4 1034135
02:00−18вюв349797 0.1 1033129
05:00−3зюз51097100 0.1 1027332
08:00−1з61196100 0.6 1027565
11:00−12юв3496100 0.9 1033125
14:00−8юв339682 0.3 1032131
17:00−5зюз499238 0.0 1027197
20:00−3юз369799 0.2 1032190
27 января, ср
ср2723:00−6зюз499373 0.0 1026190
02:00−7ююз349699 0.0 103085
05:00−6ююз3594100 0.0 1029124
08:00−7зюз4990100 0.0 1025168
11:00−5юз489383 0.0 1028238
14:00−3зюз598813 0.0 1028425
17:00−6з4692100 0.0 1025129
20:00−6зсз4891100 0.0 1026240